Time,TemperatureF,DewpointF,PressureIn,WindDirection,WindDirectionDegrees,WindSpeedMPH,WindSpeedGustMPH,Humidity,HourlyPrecipIn,Conditions,Clouds,dailyrainin,SoftwareType,DateUTC
2013-05-21 00:01:00,66.0,31.0,30.00,North,355,10.0,21.0,27,0.00,,,0.00,,2013-05-21 07:01:00,
2013-05-21 00:11:00,66.0,31.0,30.00,North,355,10.0,21.0,27,0.00,,,0.00,,2013-05-21 07:11:00,
2013-05-21 00:21:00,65.0,31.0,30.00,North,355,8.0,20.0,28,0.00,,,0.00,,2013-05-21 07:21:00,
2013-05-21 00:31:00,65.0,29.0,30.00,North,349,9.0,16.0,26,0.00,,,0.00,,2013-05-21 07:31:00,
2013-05-21 00:41:00,65.0,29.0,30.00,North,349,9.0,16.0,26,0.00,,,0.00,,2013-05-21 07:41:00,
2013-05-21 00:51:00,65.0,29.0,29.99,NNW,340,11.0,21.0,26,0.00,,,0.00,,2013-05-21 07:51:00,
2013-05-21 01:01:00,65.0,29.0,29.99,North,5,11.0,22.0,26,0.00,,,0.00,,2013-05-21 08:01:00,
2013-05-21 01:11:00,65.0,30.0,29.98,North,9,15.0,22.0,27,0.00,,,0.00,,2013-05-21 08:11:00,
2013-05-21 01:21:00,65.0,30.0,29.98,North,9,15.0,22.0,27,0.00,,,0.00,,2013-05-21 08:21:00,
2013-05-21 01:31:00,65.0,31.0,29.98,NNW,328,12.0,19.0,28,0.00,,,0.00,,2013-05-21 08:31:00,
2013-05-21 01:41:00,65.0,34.0,29.98,North,360,12.0,20.0,31,0.00,,,0.00,,2013-05-21 08:41:00,
2013-05-21 01:52:00,65.0,34.0,29.98,North,360,12.0,20.0,31,0.00,,,0.00,,2013-05-21 08:52:00,
2013-05-21 02:01:00,64.0,34.0,29.97,NNW,346,8.0,19.0,32,0.00,,,0.00,,2013-05-21 09:01:00,
2013-05-21 02:11:00,64.0,34.0,29.97,NNW,346,8.0,19.0,32,0.00,,,0.00,,2013-05-21 09:11:00,
2013-05-21 02:21:00,64.0,34.0,29.97,North,360,10.0,20.0,32,0.00,,,0.00,,2013-05-21 09:21:00,
2013-05-21 02:32:00,64.0,34.0,29.96,North,360,10.0,16.0,33,0.00,,,0.00,,2013-05-21 09:32:00,
2013-05-21 02:41:00,64.0,34.0,29.96,North,360,10.0,16.0,33,0.00,,,0.00,,2013-05-21 09:41:00,
2013-05-21 02:52:00,64.0,35.0,29.96,NNE,16,8.0,19.0,34,0.00,,,0.00,,2013-05-21 09:52:00,
2013-05-21 03:02:00,63.0,34.0,29.96,NNW,340,12.0,19.0,34,0.00,,,0.00,,2013-05-21 10:02:00,
2013-05-21 03:12:00,63.0,34.0,29.96,NNW,340,12.0,19.0,34,0.00,,,0.00,,2013-05-21 10:12:00,
2013-05-21 03:22:00,64.0,35.0,29.96,North,5,13.0,20.0,34,0.00,,,0.00,,2013-05-21 10:22:00,
2013-05-21 03:32:00,63.0,34.0,29.95,NNW,342,10.0,16.0,34,0.00,,,0.00,,2013-05-21 10:32:00,
2013-05-21 03:41:00,63.0,34.0,29.95,NNW,342,10.0,16.0,34,0.00,,,0.00,,2013-05-21 10:41:00,
2013-05-21 03:52:00,63.0,33.0,29.94,North,355,12.0,18.0,33,0.00,,,0.00,,2013-05-21 10:52:00,
2013-05-21 04:02:00,63.0,33.0,29.94,NNW,327,11.0,18.0,33,0.00,,,0.00,,2013-05-21 11:02:00,
2013-05-21 04:11:00,63.0,33.0,29.94,NNW,327,11.0,18.0,33,0.00,,,0.00,,2013-05-21 11:11:00,
2013-05-21 04:21:00,63.0,34.0,29.95,North,355,11.0,17.0,34,0.00,,,0.00,,2013-05-21 11:21:00,
2013-05-21 04:31:00,63.0,33.0,29.94,NNW,340,12.0,18.0,33,0.00,,,0.00,,2013-05-21 11:31:00,
2013-05-21 04:41:00,63.0,33.0,29.94,NNW,340,12.0,18.0,33,0.00,,,0.00,,2013-05-21 11:41:00,
2013-05-21 04:51:00,63.0,34.0,29.94,North,355,12.0,17.0,34,0.00,,,0.00,,2013-05-21 11:51:00,
2013-05-21 05:01:00,63.0,34.0,29.94,North,355,10.0,17.0,34,0.00,,,0.00,,2013-05-21 12:01:00,
2013-05-21 05:11:00,63.0,34.0,29.94,North,355,10.0,17.0,34,0.00,,,0.00,,2013-05-21 12:11:00,
2013-05-21 05:21:00,63.0,34.0,29.94,North,9,7.0,19.0,34,0.00,,,0.00,,2013-05-21 12:21:00,
2013-05-21 05:31:00,63.0,34.0,29.94,NNW,348,8.0,18.0,34,0.00,,,0.00,,2013-05-21 12:31:00,
2013-05-21 05:42:00,63.0,34.0,29.94,NNW,348,8.0,18.0,34,0.00,,,0.00,,2013-05-21 12:42:00,
2013-05-21 05:51:00,63.0,35.0,29.93,North,350,13.0,19.0,35,0.00,,,0.00,,2013-05-21 12:51:00,
2013-05-21 06:01:00,64.0,32.0,29.92,North,360,14.0,22.0,30,0.00,,,0.00,,2013-05-21 13:01:00,
2013-05-21 06:21:00,64.0,27.0,29.92,NNW,342,9.0,19.0,25,0.00,,,0.00,,2013-05-21 13:21:00,
2013-05-21 06:31:00,65.0,25.0,29.93,NNW,343,10.0,19.0,22,0.00,,,0.00,,2013-05-21 13:31:00,
2013-05-21 06:41:00,65.0,26.0,29.93,North,5,11.0,19.0,23,0.00,,,0.00,,2013-05-21 13:41:00,
2013-05-21 06:52:00,65.0,26.0,29.93,North,5,11.0,19.0,23,0.00,,,0.00,,2013-05-21 13:52:00,
2013-05-21 07:01:00,65.0,31.0,29.94,North,349,8.0,17.0,28,0.00,,,0.00,,2013-05-21 14:01:00,
2013-05-21 07:11:00,65.0,31.0,29.94,North,349,8.0,17.0,28,0.00,,,0.00,,2013-05-21 14:11:00,
2013-05-21 07:21:00,65.0,32.0,29.94,NNW,346,6.0,15.0,29,0.00,,,0.00,,2013-05-21 14:21:00,
2013-05-21 07:31:00,65.0,34.0,29.94,NW,313,9.0,19.0,31,0.00,,,0.00,,2013-05-21 14:31:00,
2013-05-21 07:41:00,65.0,32.0,29.94,North,351,8.0,16.0,29,0.00,,,0.00,,2013-05-21 14:41:00,
2013-05-21 07:51:00,65.0,32.0,29.94,North,351,8.0,16.0,29,0.00,,,0.00,,2013-05-21 14:51:00,
2013-05-21 08:01:00,66.0,30.0,29.95,North,350,6.0,14.0,26,0.00,,,0.00,,2013-05-21 15:01:00,
2013-05-21 08:11:00,67.0,33.0,29.95,NNW,346,7.0,17.0,28,0.00,,,0.00,,2013-05-21 15:11:00,
2013-05-21 08:21:00,67.0,33.0,29.95,NNW,346,7.0,17.0,28,0.00,,,0.00,,2013-05-21 15:21:00,
2013-05-21 08:32:00,68.0,33.0,29.95,NNW,339,8.0,15.0,27,0.00,,,0.00,,2013-05-21 15:32:00,
2013-05-21 08:42:00,69.0,33.0,29.95,NNW,342,11.0,21.0,26,0.00,,,0.00,,2013-05-21 15:42:00,
2013-05-21 08:52:00,69.0,33.0,29.95,NNW,342,11.0,21.0,26,0.00,,,0.00,,2013-05-21 15:52:00,
2013-05-21 09:02:00,69.0,32.0,29.95,North,355,10.0,20.0,25,0.00,,,0.00,,2013-05-21 16:02:00,
2013-05-21 09:12:00,70.0,33.0,29.96,NNW,340,10.0,17.0,25,0.00,,,0.00,,2013-05-21 16:12:00,
2013-05-21 09:23:00,70.0,33.0,29.96,NNW,340,10.0,17.0,25,0.00,,,0.00,,2013-05-21 16:23:00,
2013-05-21 09:32:00,71.0,33.0,29.96,NNW,348,9.0,16.0,25,0.00,,,0.00,,2013-05-21 16:32:00,
2013-05-21 09:42:00,70.0,32.0,29.96,North,355,9.0,16.0,24,0.00,,,0.00,,2013-05-21 16:42:00,
2013-05-21 09:52:00,70.0,32.0,29.96,North,355,9.0,16.0,24,0.00,,,0.00,,2013-05-21 16:52:00,
2013-05-21 10:02:00,72.0,33.0,29.96,North,11,9.0,15.0,24,0.00,,,0.00,,2013-05-21 17:02:00,
2013-05-21 10:11:00,72.0,32.0,29.96,North,360,6.0,16.0,23,0.00,,,0.00,,2013-05-21 17:11:00,
2013-05-21 10:22:00,72.0,32.0,29.96,North,360,6.0,16.0,23,0.00,,,0.00,,2013-05-21 17:22:00,
2013-05-21 10:32:00,72.0,32.0,29.96,North,5,8.0,17.0,23,0.00,,,0.00,,2013-05-21 17:32:00,
2013-05-21 10:43:00,72.0,33.0,29.96,NNW,335,8.0,16.0,24,0.00,,,0.00,,2013-05-21 17:43:00,
2013-05-21 10:52:00,72.0,33.0,29.96,NNW,335,8.0,16.0,24,0.00,,,0.00,,2013-05-21 17:52:00,
2013-05-21 11:01:00,71.0,34.0,29.96,NW,306,8.0,17.0,26,0.00,,,0.00,,2013-05-21 18:01:00,
2013-05-21 11:11:00,71.0,35.0,29.97,West,261,9.0,19.0,27,0.00,,,0.00,,2013-05-21 18:11:00,
2013-05-21 11:22:00,71.0,35.0,29.97,West,261,9.0,19.0,27,0.00,,,0.00,,2013-05-21 18:22:00,
2013-05-21 11:32:00,72.0,36.0,29.96,North,350,7.0,18.0,27,0.00,,,0.00,,2013-05-21 18:32:00,
2013-05-21 11:41:00,71.0,35.0,29.97,NNW,343,8.0,22.0,27,0.00,,,0.00,,2013-05-21 18:41:00,
2013-05-21 11:51:00,71.0,35.0,29.97,NNW,343,8.0,22.0,27,0.00,,,0.00,,2013-05-21 18:51:00,
2013-05-21 12:01:00,71.0,34.0,29.96,North,5,12.0,28.0,26,0.00,,,0.00,,2013-05-21 19:01:00,
2013-05-21 12:11:00,72.0,33.0,29.96,NNW,348,10.0,18.0,24,0.00,,,0.00,,2013-05-21 19:11:00,
2013-05-21 12:21:00,72.0,33.0,29.96,NNW,348,10.0,18.0,24,0.00,,,0.00,,2013-05-21 19:21:00,
2013-05-21 12:31:00,72.0,34.0,29.96,NNW,343,11.0,23.0,25,0.00,,,0.00,,2013-05-21 19:31:00,
2013-05-21 12:41:00,72.0,34.0,29.95,NNW,338,10.0,18.0,25,0.00,,,0.00,,2013-05-21 19:41:00,
2013-05-21 12:52:00,72.0,34.0,29.95,NNW,338,10.0,18.0,25,0.00,,,0.00,,2013-05-21 19:52:00,
2013-05-21 13:02:00,72.0,32.0,29.96,NNW,331,14.0,25.0,23,0.00,,,0.00,,2013-05-21 20:02:00,
2013-05-21 13:11:00,72.0,32.0,29.96,NNW,331,14.0,25.0,23,0.00,,,0.00,,2013-05-21 20:11:00,
2013-05-21 13:21:00,72.0,35.0,29.95,North,355,9.0,21.0,26,0.00,,,0.00,,2013-05-21 20:21:00,
2013-05-21 13:32:00,72.0,32.0,29.95,NNW,341,12.0,25.0,23,0.00,,,0.00,,2013-05-21 20:32:00,
2013-05-21 13:42:00,72.0,34.0,29.95,NW,318,11.0,17.0,25,0.00,,,0.00,,2013-05-21 20:42:00,
2013-05-21 13:52:00,72.0,34.0,29.95,NW,318,11.0,17.0,25,0.00,,,0.00,,2013-05-21 20:52:00,
2013-05-21 14:01:00,72.0,32.0,29.94,North,350,6.0,16.0,23,0.00,,,0.00,,2013-05-21 21:01:00,
2013-05-21 14:11:00,72.0,32.0,29.94,North,350,6.0,16.0,23,0.00,,,0.00,,2013-05-21 21:11:00,
2013-05-21 14:21:00,73.0,34.0,29.94,NNE,26,11.0,19.0,24,0.00,,,0.00,,2013-05-21 21:21:00,
2013-05-21 14:32:00,72.0,31.0,29.93,North,355,10.0,19.0,22,0.00,,,0.00,,2013-05-21 21:32:00,
2013-05-21 14:43:00,72.0,32.0,29.94,North,350,9.0,22.0,23,0.00,,,0.00,,2013-05-21 21:43:00,
2013-05-21 14:53:00,72.0,32.0,29.94,North,350,9.0,22.0,23,0.00,,,0.00,,2013-05-21 21:53:00,
2013-05-21 15:02:00,73.0,32.0,29.94,North,360,13.0,19.0,22,0.00,,,0.00,,2013-05-21 22:02:00,
2013-05-21 15:12:00,73.0,32.0,29.94,North,360,13.0,19.0,22,0.00,,,0.00,,2013-05-21 22:12:00,
2013-05-21 15:22:00,72.0,32.0,29.93,North,349,6.0,26.0,23,0.00,,,0.00,,2013-05-21 22:22:00,
2013-05-21 15:33:00,72.0,33.0,29.93,NNE,30,6.0,15.0,24,0.00,,,0.00,,2013-05-21 22:33:00,
2013-05-21 15:41:00,72.0,35.0,29.92,North,360,9.0,18.0,26,0.00,,,0.00,,2013-05-21 22:41:00,
2013-05-21 15:52:00,72.0,35.0,29.92,North,360,9.0,18.0,26,0.00,,,0.00,,2013-05-21 22:52:00,
2013-05-21 16:02:00,74.0,34.0,29.91,North,350,4.0,14.0,23,0.00,,,0.00,,2013-05-21 23:02:00,
2013-05-21 16:11:00,74.0,34.0,29.91,North,350,4.0,14.0,23,0.00,,,0.00,,2013-05-21 23:11:00,
2013-05-21 16:22:00,73.0,35.0,29.91,North,355,5.0,12.0,25,0.00,,,0.00,,2013-05-21 23:22:00,
2013-05-21 16:32:00,72.0,35.0,29.90,North,5,12.0,17.0,26,0.00,,,0.00,,2013-05-21 23:32:00,
2013-05-21 16:41:00,73.0,36.0,29.91,NNW,335,5.0,16.0,26,0.00,,,0.00,,2013-05-21 23:41:00,
2013-05-21 16:52:00,73.0,36.0,29.91,NNW,335,5.0,16.0,26,0.00,,,0.00,,2013-05-21 23:52:00,
2013-05-21 17:01:00,72.0,35.0,29.89,North,360,6.0,21.0,26,0.00,,,0.00,,2013-05-22 00:01:00,
2013-05-21 17:11:00,71.0,35.0,29.90,West,272,8.0,21.0,27,0.00,,,0.00,,2013-05-22 00:11:00,
2013-05-21 17:31:00,72.0,36.0,29.89,WNW,297,5.0,17.0,27,0.00,,,0.00,,2013-05-22 00:31:00,
2013-05-21 17:41:00,71.0,35.0,29.88,North,355,8.0,26.0,27,0.00,,,0.00,,2013-05-22 00:41:00,
2013-05-21 17:51:00,71.0,35.0,29.88,North,355,8.0,26.0,27,0.00,,,0.00,,2013-05-22 00:51:00,
2013-05-21 18:01:00,70.0,34.0,29.88,North,355,16.0,26.0,27,0.00,,,0.00,,2013-05-22 01:01:00,
2013-05-21 18:11:00,70.0,34.0,29.88,North,355,16.0,26.0,27,0.00,,,0.00,,2013-05-22 01:11:00,
2013-05-21 18:21:00,70.0,34.0,29.87,NNW,346,15.0,22.0,27,0.00,,,0.00,,2013-05-22 01:21:00,
2013-05-21 18:31:00,70.0,35.0,29.87,NNW,343,15.0,22.0,28,0.00,,,0.00,,2013-05-22 01:31:00,
2013-05-21 18:41:00,70.0,35.0,29.87,NNW,343,15.0,22.0,28,0.00,,,0.00,,2013-05-22 01:41:00,
2013-05-21 18:52:00,70.0,35.0,29.87,NNW,343,15.0,22.0,28,0.00,,,0.00,,2013-05-22 01:52:00,
2013-05-21 19:01:00,68.0,34.0,29.86,NNW,342,9.0,19.0,28,0.00,,,0.00,,2013-05-22 02:01:00,
2013-05-21 19:11:00,68.0,35.0,29.86,NNW,329,14.0,26.0,29,0.00,,,0.00,,2013-05-22 02:11:00,
2013-05-21 19:21:00,68.0,35.0,29.86,NNW,329,14.0,26.0,29,0.00,,,0.00,,2013-05-22 02:21:00,
2013-05-21 19:32:00,67.0,33.0,29.86,North,5,12.0,24.0,28,0.00,,,0.00,,2013-05-22 02:32:00,
2013-05-21 19:41:00,67.0,31.0,29.86,WNW,296,11.0,19.0,26,0.00,,,0.00,,2013-05-22 02:41:00,
2013-05-21 19:52:00,67.0,31.0,29.86,WNW,296,11.0,19.0,26,0.00,,,0.00,,2013-05-22 02:52:00,
2013-05-21 20:01:00,67.0,31.0,29.85,NNW,344,6.0,18.0,26,0.00,,,0.00,,2013-05-22 03:01:00,
2013-05-21 20:11:00,66.0,28.0,29.86,NNW,338,9.0,17.0,24,0.00,,,0.00,,2013-05-22 03:11:00,
2013-05-21 20:21:00,66.0,28.0,29.86,NNW,338,9.0,17.0,24,0.00,,,0.00,,2013-05-22 03:21:00,
2013-05-21 20:33:00,66.0,27.0,29.85,NW,319,10.0,29.0,23,0.00,,,0.00,,2013-05-22 03:33:00,
2013-05-21 20:43:00,66.0,26.0,29.85,NNW,338,7.0,17.0,22,0.00,,,0.00,,2013-05-22 03:43:00,
2013-05-21 20:53:00,66.0,26.0,29.85,NNW,338,7.0,17.0,22,0.00,,,0.00,,2013-05-22 03:53:00,
2013-05-21 21:03:00,66.0,26.0,29.85,NNE,15,12.0,24.0,22,0.00,,,0.00,,2013-05-22 04:03:00,
2013-05-21 21:12:00,66.0,26.0,29.85,NNE,15,12.0,24.0,22,0.00,,,0.00,,2013-05-22 04:12:00,
2013-05-21 21:22:00,65.0,24.0,29.85,North,5,12.0,26.0,21,0.00,,,0.00,,2013-05-22 04:22:00,
2013-05-21 21:33:00,65.0,24.0,29.85,NNE,19,9.0,26.0,21,0.00,,,0.00,,2013-05-22 04:33:00,
2013-05-21 21:42:00,65.0,25.0,29.85,NNE,19,15.0,27.0,22,0.00,,,0.00,,2013-05-22 04:42:00,
2013-05-21 21:52:00,65.0,25.0,29.85,NNE,19,15.0,27.0,22,0.00,,,0.00,,2013-05-22 04:52:00,
2013-05-21 22:02:00,64.0,28.0,29.85,NW,323,12.0,24.0,26,0.00,,,0.00,,2013-05-22 05:02:00,
2013-05-21 22:11:00,64.0,31.0,29.85,North,360,12.0,25.0,29,0.00,,,0.00,,2013-05-22 05:11:00,
2013-05-21 22:21:00,64.0,31.0,29.85,North,360,12.0,25.0,29,0.00,,,0.00,,2013-05-22 05:21:00,
2013-05-21 22:31:00,63.0,31.0,29.85,NNW,348,16.0,28.0,30,0.00,,,0.00,,2013-05-22 05:31:00,
2013-05-21 22:41:00,60.0,37.0,29.85,North,360,16.0,31.0,42,0.00,,,0.00,,2013-05-22 05:41:00,
2013-05-21 22:52:00,60.0,37.0,29.85,North,360,16.0,31.0,42,0.00,,,0.00,,2013-05-22 05:52:00,
2013-05-21 23:01:00,59.0,40.0,29.84,NNE,17,13.0,28.0,49,0.00,,,0.00,,2013-05-22 06:01:00,
2013-05-21 23:11:00,59.0,40.0,29.85,West,265,15.0,30.0,50,0.00,,,0.00,,2013-05-22 06:11:00,
2013-05-21 23:21:00,59.0,40.0,29.85,West,265,15.0,30.0,50,0.00,,,0.00,,2013-05-22 06:21:00,
2013-05-21 23:31:00,58.0,40.0,29.85,North,355,14.0,31.0,51,0.00,,,0.00,,2013-05-22 06:31:00,
2013-05-21 23:41:00,57.0,39.0,29.83,North,360,15.0,29.0,50,0.00,,,0.00,,2013-05-22 06:41:00,
2013-05-21 23:52:00,57.0,39.0,29.83,North,360,15.0,29.0,50,0.00,,,0.00,,2013-05-22 06:52:00,